TimeHAST,TemperatureF,Dew PointF,Humidity,Sea Level PressureIn,VisibilityMPH,Wind Direction,Wind SpeedMPH,Gust SpeedMPH,PrecipitationIn,Events,Conditions,WindDirDegrees,DateUTC
12:16 AM,30.2,-16.6,13,29.31,10.0,WNW,13.8,21.9,N/A,,Mostly Cloudy,300,2013-01-21 10:16:00
12:36 AM,30.2,-16.6,13,29.33,9.0,West,26.5,31.1,N/A,,Mostly Cloudy,270,2013-01-21 10:36:00
12:56 AM,30.2,-16.6,13,29.33,10.0,West,19.6,25.3,N/A,,Mostly Cloudy,270,2013-01-21 10:56:00
1:16 AM,32.0,-16.6,12,29.34,10.0,West,19.6,25.3,N/A,,Mostly Cloudy,280,2013-01-21 11:16:00
1:36 AM,32.0,-16.6,12,29.35,10.0,West,20.7,25.3,N/A,,Mostly Cloudy,280,2013-01-21 11:36:00
1:56 AM,30.2,-16.6,13,29.36,10.0,West,23.0,32.2,N/A,,Mostly Cloudy,260,2013-01-21 11:56:00
2:16 AM,30.2,-16.6,13,29.36,3.0,West,13.8,27.6,N/A,,Mostly Cloudy,270,2013-01-21 12:16:00
2:36 AM,30.2,-16.6,13,29.37,9.0,West,24.2,31.1,N/A,,Mostly Cloudy,260,2013-01-21 12:36:00
2:56 AM,32.0,-16.6,12,29.37,8.0,West,19.6,25.3,N/A,,Overcast,280,2013-01-21 12:56:00
3:16 AM,30.2,-16.6,13,29.38,10.0,West,16.1,23.0,N/A,,Scattered Clouds,270,2013-01-21 13:16:00
3:36 AM,30.2,-16.6,13,29.39,10.0,West,16.1,20.7,N/A,,Partly Cloudy,260,2013-01-21 13:36:00
3:56 AM,30.2,-16.6,13,29.40,3.0,West,21.9,25.3,N/A,,Mostly Cloudy,260,2013-01-21 13:56:00
4:16 AM,30.2,-16.6,13,29.40,9.0,West,18.4,26.5,N/A,,Mostly Cloudy,270,2013-01-21 14:16:00
4:36 AM,30.2,-16.6,13,29.41,10.0,West,13.8,-,N/A,,Mostly Cloudy,260,2013-01-21 14:36:00
4:56 AM,30.2,-16.6,13,29.42,10.0,West,13.8,-,N/A,,Scattered Clouds,270,2013-01-21 14:56:00
5:16 AM,30.2,-16.6,13,29.42,10.0,West,12.7,-,N/A,,Clear,270,2013-01-21 15:16:00
5:36 AM,30.2,-16.6,13,29.43,10.0,WSW,11.5,-,N/A,,Partly Cloudy,250,2013-01-21 15:36:00
5:56 AM,28.4,-18.4,12,29.44,10.0,West,10.4,-,N/A,,Scattered Clouds,270,2013-01-21 15:56:00
6:16 AM,28.4,-18.4,12,29.44,10.0,West,11.5,-,N/A,,Scattered Clouds,260,2013-01-21 16:16:00
6:36 AM,26.6,-20.2,12,29.45,10.0,West,9.2,-,N/A,,Partly Cloudy,260,2013-01-21 16:36:00
6:56 AM,26.6,-20.2,12,29.45,10.0,West,10.4,-,N/A,,Clear,260,2013-01-21 16:56:00
7:16 AM,26.6,-20.2,12,29.45,10.0,West,10.4,-,N/A,,Clear,260,2013-01-21 17:16:00
7:36 AM,26.6,-20.2,12,29.46,10.0,WSW,11.5,-,N/A,,Clear,250,2013-01-21 17:36:00
7:56 AM,26.6,-20.2,12,29.46,10.0,WSW,11.5,-,N/A,,Partly Cloudy,250,2013-01-21 17:56:00
8:16 AM,28.4,-18.4,12,29.47,10.0,WSW,11.5,-,N/A,,Scattered Clouds,250,2013-01-21 18:16:00
8:36 AM,26.6,-18.4,13,29.48,10.0,WSW,11.5,-,N/A,,Partly Cloudy,250,2013-01-21 18:36:00
8:56 AM,26.6,-20.2,12,29.48,10.0,WSW,12.7,-,N/A,,Clear,250,2013-01-21 18:56:00
9:16 AM,26.6,-18.4,13,29.49,10.0,WSW,11.5,-,N/A,,Clear,250,2013-01-21 19:16:00
9:36 AM,26.6,-20.2,12,29.50,10.0,WSW,10.4,-,N/A,,Clear,240,2013-01-21 19:36:00
9:56 AM,28.4,-18.4,12,29.51,10.0,WSW,12.7,-,N/A,,Clear,240,2013-01-21 19:56:00
10:16 AM,30.2,-18.4,11,29.52,10.0,WSW,12.7,-,N/A,,Partly Cloudy,240,2013-01-21 20:16:00
10:36 AM,30.2,-16.6,13,29.53,10.0,WSW,12.7,-,N/A,,Partly Cloudy,240,2013-01-21 20:36:00
10:56 AM,32.0,-16.6,12,29.54,10.0,WSW,9.2,-,N/A,,Clear,240,2013-01-21 20:56:00
11:16 AM,33.8,-16.6,11,29.54,10.0,SW,8.1,-,N/A,,Clear,230,2013-01-21 21:16:00
11:36 AM,33.8,-14.8,12,29.55,10.0,SW,9.2,-,N/A,,Clear,230,2013-01-21 21:36:00
11:56 AM,33.8,-14.8,12,29.55,10.0,WSW,10.4,-,N/A,,Clear,240,2013-01-21 21:56:00
12:16 PM,35.6,-14.8,11,29.55,10.0,WSW,9.2,-,N/A,,Clear,240,2013-01-21 22:16:00
12:36 PM,35.6,-14.8,11,29.56,10.0,SW,8.1,-,N/A,,Clear,230,2013-01-21 22:36:00
12:56 PM,35.6,-13.0,12,29.56,10.0,WSW,9.2,-,N/A,,Clear,250,2013-01-21 22:56:00
1:16 PM,35.6,-13.0,12,29.56,10.0,WSW,8.1,-,N/A,,Clear,240,2013-01-21 23:16:00
1:36 PM,37.4,-13.0,11,29.56,10.0,West,6.9,-,N/A,,Clear,260,2013-01-21 23:36:00
1:56 PM,37.4,-11.2,12,29.56,10.0,West,5.8,-,N/A,,Clear,260,2013-01-21 23:56:00
2:16 PM,37.4,-13.0,11,29.56,10.0,West,6.9,-,N/A,,Clear,260,2013-01-22 00:16:00
2:36 PM,37.4,-13.0,11,29.56,10.0,West,6.9,-,N/A,,Clear,260,2013-01-22 00:36:00
2:56 PM,35.6,-13.0,12,29.56,10.0,West,8.1,-,N/A,,Clear,260,2013-01-22 00:56:00
3:16 PM,35.6,-14.8,11,29.56,10.0,West,8.1,-,N/A,,Clear,260,2013-01-22 01:16:00
3:36 PM,35.6,-14.8,11,29.56,10.0,WSW,6.9,-,N/A,,Clear,250,2013-01-22 01:36:00
3:56 PM,35.6,-14.8,11,29.56,10.0,WSW,8.1,-,N/A,,Clear,240,2013-01-22 01:56:00
4:16 PM,35.6,-14.8,11,29.57,10.0,WSW,8.1,-,N/A,,Clear,250,2013-01-22 02:16:00
4:36 PM,33.8,-14.8,12,29.57,10.0,WSW,6.9,-,N/A,,Clear,250,2013-01-22 02:36:00
4:56 PM,32.0,-16.6,12,29.57,10.0,WSW,6.9,-,N/A,,Clear,240,2013-01-22 02:56:00
5:16 PM,28.4,-18.4,12,29.57,10.0,WSW,6.9,-,N/A,,Clear,250,2013-01-22 03:16:00
5:36 PM,26.6,-18.4,13,29.57,10.0,WSW,6.9,-,N/A,,Clear,250,2013-01-22 03:36:00
5:56 PM,26.6,-20.2,12,29.57,10.0,WSW,6.9,-,N/A,,Clear,250,2013-01-22 03:56:00
6:16 PM,26.6,-20.2,12,29.57,10.0,WSW,6.9,-,N/A,,Clear,250,2013-01-22 04:16:00
6:36 PM,26.6,-20.2,12,29.57,10.0,Calm,Calm,-,N/A,,Clear,0,2013-01-22 04:36:00
6:56 PM,24.8,-20.2,13,29.57,10.0,North,3.5,-,N/A,,Clear,350,2013-01-22 04:56:00
7:16 PM,23.0,-23.8,12,29.57,10.0,Calm,Calm,-,N/A,,Clear,0,2013-01-22 05:16:00
7:36 PM,21.2,-23.8,13,29.57,10.0,Calm,Calm,-,N/A,,Clear,0,2013-01-22 05:36:00
7:56 PM,21.2,-23.8,13,29.57,10.0,Calm,Calm,-,N/A,,Clear,0,2013-01-22 05:56:00
8:16 PM,21.2,-23.8,13,29.57,10.0,Calm,Calm,-,N/A,,Clear,0,2013-01-22 06:16:00
8:36 PM,21.2,-23.8,13,29.58,10.0,Calm,Calm,-,N/A,,Clear,0,2013-01-22 06:36:00
8:56 PM,21.2,-23.8,13,29.58,10.0,Calm,Calm,-,N/A,,Clear,0,2013-01-22 06:56:00
9:16 PM,19.4,-23.8,14,29.58,10.0,Calm,Calm,-,N/A,,Clear,0,2013-01-22 07:16:00
9:36 PM,19.4,-23.8,14,29.57,10.0,Calm,Calm,-,N/A,,Clear,0,2013-01-22 07:36:00
9:56 PM,19.4,-25.6,12,29.57,10.0,Calm,Calm,-,N/A,,Clear,0,2013-01-22 07:56:00
10:16 PM,19.4,-25.6,12,29.58,10.0,Calm,Calm,-,N/A,,Clear,0,2013-01-22 08:16:00
10:36 PM,19.4,-23.8,14,29.57,10.0,Calm,Calm,-,N/A,,Clear,0,2013-01-22 08:36:00
10:56 PM,19.4,-23.8,14,29.57,10.0,Calm,Calm,-,N/A,,Clear,0,2013-01-22 08:56:00
11:16 PM,19.4,-23.8,14,29.57,10.0,Calm,Calm,-,N/A,,Clear,0,2013-01-22 09:16:00
11:36 PM,19.4,-23.8,14,29.57,10.0,Calm,Calm,-,N/A,,Clear,0,2013-01-22 09:36:00
11:56 PM,19.4,-25.6,12,29.56,10.0,Calm,Calm,-,N/A,,Clear,0,2013-01-22 09:56:00